Location: Newark
(50.8667°N, 3.7167°E)
Time: 17:45:24
(UTC+00:00)

ISS - Visible Passes

Search period start: 21 July 2019 00:00
Search period end: 31 July 2019 00:00
Orbit: 409 x 418 km, 51.6° (Epoch: 21 July)

Date Brightness Start Highest point End Pass type
(mag) Time Alt. Az. Time Alt. Az. Time Alt. Az.
21 Jul -3.9 00:14:38 10° WNW 00:17:58 69° SSW 00:18:01 68° SSW visible
21 Jul -3.7 21:48:34 10° W 21:51:55 79° N 21:55:15 10° E visible
21 Jul -3.9 23:25:20 10° WNW 23:28:41 86° SSW 23:29:25 51° ESE visible
22 Jul -3.8 20:59:13 10° WSW 21:02:34 90° NW 21:05:56 10° E visible
22 Jul -3.8 22:35:59 10° W 22:39:21 82° N 22:41:12 24° E visible
23 Jul -1.9 00:12:45 10° W 00:14:00 20° W 00:14:00 20° W visible
23 Jul -3.7 21:46:38 10° W 21:49:59 76° N 21:53:09 11° E visible
23 Jul -3.2 23:23:22 10° W 23:25:57 44° WSW 23:25:57 44° WSW visible
24 Jul -3.6 20:57:16 10° W 21:00:37 76° N 21:03:57 10° E visible
24 Jul -3.9 22:34:01 10° WNW 22:37:21 73° SSW 22:37:59 53° SE visible
25 Jul -3.9 21:44:38 10° WNW 21:48:01 90° SSE 21:50:04 21° ESE visible
25 Jul -1.9 23:21:29 10° W 23:22:53 20° WSW 23:22:53 20° WSW visible
26 Jul -3.7 20:55:16 10° W 20:58:38 80° N 21:01:58 10° E visible
26 Jul -3.3 22:32:01 10° W 22:35:00 43° SW 22:35:00 43° SW visible
27 Jul -3.7 21:42:36 10° WNW 21:45:55 60° SSW 21:47:10 33° SE visible
27 Jul -1.0 23:19:58 10° W 23:19:58 10° W 23:19:58 10° W visible
28 Jul -3.8 20:53:11 10° WNW 20:56:33 78° SSW 20:59:21 14° ESE visible
28 Jul -2.1 22:30:10 10° W 22:32:09 22° WSW 22:32:09 22° WSW visible
29 Jul -2.9 21:40:35 10° W 21:43:39 34° SSW 21:44:22 30° S visible
30 Jul -3.3 20:51:05 10° W 20:54:20 48° SSW 20:56:36 17° SE visible
30 Jul -1.1 22:29:05 10° WSW 22:29:25 11° WSW 22:29:25 11° WSW visible
